Simultaneous Nadir Overpasses (SNOs) Predictions

Prediction of SNOs between METOP-A and NOAA-19 Satellite Orbit:

Table of predicted SNOs for the next 14.0 days since TLE Epoch: 10/31/2014
Index Date (METOP-A) Time (METOP-A) Lat,Lon (METOP-A) SZA (METOP-A ) Date (NOAA-19) Time (NOAA-19) Lat,Lon (NOAA-19) SZA (NOAA-19 ) Distance(km) Time Diff (sec)
1 11/09/2014 16:59:02 74.88, -77.77 91.77 11/09/2014 16:57:54 74.85, -80.26 91.74 72.16 68
2 11/09/2014 17:49:54 -74.39, 88.24 88.72 11/09/2014 17:48:46 -74.39, 88.27 88.72 0.94 68
3 11/09/2014 18:40:34 74.38,-104.47 91.28 11/09/2014 18:39:47 74.36,-104.40 91.27 2.86 47
4 11/09/2014 19:31:16 -74.38, 62.85 88.71 11/09/2014 19:30:49 -74.38, 62.79 88.71 1.80 27
5 11/09/2014 20:21:56 74.36,-129.85 91.29 11/09/2014 20:21:50 74.35,-129.88 91.27 1.67 6
6 11/09/2014 21:12:39 -74.31, 37.34 88.76 11/09/2014 21:12:51 -74.32, 37.45 88.75 3.19 12
7 11/09/2014 22:03:18 74.34,-155.24 91.29 11/09/2014 22:03:53 74.33,-155.35 91.28 3.64 35
8 11/09/2014 22:54:01 -74.29, 11.96 88.76 11/09/2014 22:54:54 -74.30, 11.97 88.75 1.14 53
9 11/09/2014 23:44:41 74.28, 179.25 91.24 11/09/2014 23:45:55 74.27, 179.30 91.24 1.47 74




NCC Satellite Simultaneous Nadir Overpasses (SNOs) Prediction Service
